{"data":{"norad_id":65039,"intl_designator":"2025-161AA","name":"STARLINK-34721","alt_names":[],"object_type":"PAYLOAD","status":"ACTIVE","operator":null,"country":"US","launch_date":"2025-07-30","launch_site_code":"AFWTR","launch_vehicle":null,"mission":null,"orbit_class":"UNKNOWN","rcs_meters":null,"size_class":null,"mass_kg":null,"dimensions":null,"purposes":["comms"],"wikipedia_slug":null,"has_3d_model":false,"image_url":null,"decayed_at":null,"tle_current":{"epoch":"2026-09-20T22:54:24.262272Z","epoch_age_seconds":81651,"freshness":"FRESH","line1":"1 65039U 25161AA  26263.95444748  .00012201  00000+0  37169-3 0  9996","line2":"2 65039  53.1589 105.2320 0001471  81.8219 278.2950 15.34397129 64154","mean_motion":15.34397129,"eccentricity":0.0001471,"inclination_deg":53.1589,"raan_deg":105.232,"arg_perigee_deg":81.8219,"mean_anomaly_deg":278.295,"bstar":0.00037169,"rev_number":6415,"period_min":93.847933679235,"perigee_km":461.70548458287,"apogee_km":463.71806229202,"semimajor_km":6840.8487734374,"source":"CELESTRAK","updated_at":"2026-09-21T09:00:35.496677Z"}}}